Notices

What's New in latest Release from April 7th, 2021:

- Updated Glossary, including Speed of Maximum Gust, and Total Hourly Precipitation

- Updated national and regional climate services offices contacts and prices information

- Addition of station inventory lists for 1981-2010, 1971-2000, and 1961-1990 Normals.

If you haven't already, please take our survey and provide feedback about our website: https://eccc.sondage-survey.ca/f/LanguageSelection.aspx?s=442ca660-fcf1-47c0-95a9-59707d6fd709

Hourly Data Report for September 07, 2019

QUALICUM BEACH AIRPORT
BRITISH COLUMBIA
Current Station Operator: ECCC - MSC

49°20'14.000" N
124°23'38.000" W
58.20 m
1026562
71766
VOQ

Download Data

Hourly Data (September 2019)
Hourly Data Report for September 7, 2019
TIME
LST
Temp Definition
°C
Dew Point Definition
°C
Rel Hum Definition
%
Precip. Amount Definition
mm

Wind Dir Definition
10's deg

Wind Spd Definition
km/h
Visibility Definition
km
Stn Press Definition
kPa
Hmdx Definition


Wind Chill Definition


Weather Definition


00:00 15.9 12.2 79 0.0 26 3   101.07     LegendNANA
01:00 13.0 11.3 89 0.0 22 2   101.08     LegendNANA
02:00 13.0 11.0 88 0.0 25 5   101.09     LegendNANA
03:00 12.6 10.9 89 0.0 29 3   101.07     LegendNANA
04:00 11.5 10.1 91 0.0 0 1   101.06     LegendNANA
05:00 11.4 10.1 92 0.0 0 1   101.03     LegendNANA
06:00 11.8 10.5 92 0.0 26 1   101.04     LegendNANA
07:00 13.4 11.3 87 0.0   0   101.05     LegendNANA
08:00 15.1 12.6 85 0.0 24 2   101.04     LegendNANA
09:00 17.4 12.8 75 0.0 28 6   101.01     LegendNANA
10:00 18.3 13.3 73 0.0 29 4   100.96     LegendNANA
11:00 17.9 13.7 77 0.0 2 4   100.91     LegendNANA
12:00 18.7 13.8 73 0.0 5 8   100.84     LegendNANA
13:00 20.4 13.0 62 0.0 3 6   100.76     LegendNANA
14:00 19.9 13.6 67 0.0 3 5   100.74     LegendNANA
15:00 19.6 13.2 66 0.0 34 3   100.67     LegendNANA
16:00 21.7 13.4 59 0.0 32 9   100.61 25   LegendNANA
17:00 20.5 13.5 64 0.0 33 5   100.53     LegendNANA
18:00 19.2 14.0 72 0.0 32 5   100.53     LegendNANA
19:00 18.5 14.3 76 0.0 28 5   100.51     LegendNANA
20:00 16.8 13.9 83 0.0 25 1   100.52     LegendNANA
21:00 15.7 13.4 86 0.0 18 2   100.56     LegendNANA
22:00 15.2 13.1 87 0.0 0 1   100.52     LegendNANA
23:00 15.7 13.4 86 0.0 29 1   100.57     LegendNANA

Notes on Data Quality.

Legend

  • E = Estimated
  • M = Missing
  • NA = Not Available*
  • [empty] = Indicates an unobserved value
Date modified: